TimeMST,TemperatureF,Dew PointF,Humidity,Sea Level PressureIn,VisibilityMPH,Wind Direction,Wind SpeedMPH,Gust SpeedMPH,PrecipitationIn,Events,Conditions,WindDirDegrees,DateUTC
12:56 AM,35.1,21.0,57,29.57,10.0,WSW,21.9,28.8,N/A,,Clear,250,2013-11-15 07:56:00
1:56 AM,36.0,19.9,52,29.55,10.0,WSW,28.8,38.0,N/A,,Clear,250,2013-11-15 08:56:00
2:56 AM,35.1,19.9,54,29.53,10.0,WSW,26.5,34.5,N/A,,Clear,250,2013-11-15 09:56:00
3:56 AM,35.1,21.0,57,29.51,10.0,West,25.3,33.4,N/A,,Clear,260,2013-11-15 10:56:00
4:56 AM,36.0,21.0,55,29.51,10.0,West,25.3,35.7,N/A,,Clear,260,2013-11-15 11:56:00
5:56 AM,35.1,21.0,57,29.52,10.0,West,25.3,34.5,N/A,,Clear,260,2013-11-15 12:56:00
6:56 AM,35.1,21.0,57,29.52,10.0,WSW,25.3,34.5,N/A,,Clear,250,2013-11-15 13:56:00
7:56 AM,36.0,21.0,55,29.52,10.0,West,25.3,31.1,N/A,,Clear,260,2013-11-15 14:56:00
8:56 AM,37.9,21.0,51,29.51,10.0,WSW,27.6,35.7,N/A,,Clear,250,2013-11-15 15:56:00
9:56 AM,41.0,21.0,45,29.47,10.0,West,35.7,46.0,N/A,,Clear,260,2013-11-15 16:56:00
10:56 AM,42.1,21.0,43,29.45,10.0,WSW,33.4,44.9,N/A,,Partly Cloudy,250,2013-11-15 17:56:00
11:56 AM,39.9,21.0,47,29.44,10.0,West,35.7,49.5,N/A,,Overcast,260,2013-11-15 18:56:00
12:56 PM,37.9,21.9,53,29.42,10.0,WSW,26.5,39.1,N/A,,Mostly Cloudy,250,2013-11-15 19:56:00
1:56 PM,37.9,23.0,55,29.41,10.0,WSW,24.2,-,N/A,,Overcast,240,2013-11-15 20:56:00
2:56 PM,37.9,23.0,55,29.40,10.0,WSW,21.9,29.9,N/A,,Mostly Cloudy,240,2013-11-15 21:56:00
3:56 PM,37.0,23.0,57,29.39,10.0,WSW,24.2,-,N/A,,Scattered Clouds,250,2013-11-15 22:56:00
4:56 PM,35.1,21.9,59,29.37,10.0,WSW,16.1,27.6,N/A,,Mostly Cloudy,240,2013-11-15 23:56:00
5:56 PM,35.1,21.9,59,29.36,10.0,WSW,24.2,31.1,N/A,,Overcast,250,2013-11-16 00:56:00
6:56 PM,35.1,23.0,61,29.34,10.0,WSW,28.8,36.8,N/A,,Overcast,250,2013-11-16 01:56:00
7:56 PM,35.1,23.0,61,29.32,10.0,West,23.0,-,N/A,,Overcast,260,2013-11-16 02:56:00
8:56 PM,34.0,21.9,61,29.31,10.0,WSW,17.3,-,N/A,,Overcast,250,2013-11-16 03:56:00
9:56 PM,34.0,21.9,61,29.28,10.0,WSW,17.3,-,N/A,,Overcast,250,2013-11-16 04:56:00
10:56 PM,34.0,21.9,61,29.27,10.0,WSW,15.0,-,N/A,,Overcast,250,2013-11-16 05:56:00
11:56 PM,34.0,21.9,61,29.26,10.0,WSW,11.5,-,N/A,,Overcast,250,2013-11-16 06:56:00